WZZ4453 LBSF-EPKK

Flight info

Callsign WZZ4453
Flight time N/A
Altitude 38000
Route OGOTA3T/27 OGOTA N133 RESLA DCT LOMOS DCT OVDOT DCT SODGO DCT RUPUG DCT ETNOG DCT KSC DCT KOJOT DCT RAZEC DCT LENOV
Aircraft A320/M-SDE3FGHIRWY/LB1

Departure

Time 2026-05-06 19:53
Airport Sofia Airport (LBSF)

Arrival

Time N/A
Airport Kraków John Paul II International Airport (EPKK)
Time Latitude Longitude Altitude Speed Heading
2026-05-06 19:17 42.69028 23.40580 1746 ft 0 kts 16°
2026-05-06 19:48 42.69030 23.40581 1775 ft 1 kts 14°
2026-05-06 19:49 42.69043 23.40586 1768 ft 3 kts 15°
2026-05-06 19:49 42.69079 23.40593 1771 ft 7 kts 347°
2026-05-06 19:49 42.69104 23.40535 1771 ft 9 kts 287°
2026-05-06 19:49 42.69127 23.40434 1769 ft 13 kts 289°
2026-05-06 19:50 42.69155 23.40307 1768 ft 15 kts 286°
2026-05-06 19:50 42.69187 23.40164 1767 ft 17 kts 286°
2026-05-06 19:50 42.69232 23.40005 1769 ft 19 kts 294°
2026-05-06 19:50 42.69278 23.39828 1763 ft 21 kts 286°
2026-05-06 19:51 42.69311 23.39643 1764 ft 18 kts 278°
2026-05-06 19:51 42.69397 23.39559 1767 ft 18 kts
2026-05-06 19:51 42.69528 23.39575 1770 ft 20 kts
2026-05-06 19:51 42.69638 23.39587 1763 ft 10 kts
2026-05-06 19:52 42.69711 23.39596 1764 ft 11 kts
2026-05-06 19:52 42.69767 23.39633 1762 ft 9 kts 84°
2026-05-06 19:52 42.69766 23.39669 1767 ft 3 kts 91°
2026-05-06 19:52 42.69759 23.39855 1772 ft 50 kts 95°
2026-05-06 19:53 42.69709 23.40627 1761 ft 110 kts 94°
2026-05-06 19:53 42.69636 23.41885 1765 ft 154 kts 94°
2026-05-06 19:53 42.69552 23.43470 2064 ft 170 kts 96°
2026-05-06 19:53 42.69455 23.45058 2722 ft 168 kts 96°
2026-05-06 19:54 42.69349 23.46622 3370 ft 168 kts 95°
2026-05-06 19:54 42.69236 23.48266 3731 ft 185 kts 97°
2026-05-06 19:54 42.69112 23.50113 3963 ft 207 kts 94°
2026-05-06 19:54 42.69423 23.52127 4169 ft 235 kts 60°
2026-05-06 19:55 42.70693 23.53641 4543 ft 259 kts 21°
2026-05-06 19:55 42.72529 23.53911 5004 ft 277 kts 351°
2026-05-06 19:55 42.74428 23.53345 5803 ft 281 kts 341°
2026-05-06 19:55 42.76282 23.52492 6680 ft 282 kts 337°
2026-05-06 19:56 42.78126 23.51555 7551 ft 284 kts 337°
2026-05-06 19:56 42.79985 23.50620 8422 ft 286 kts 338°
2026-05-06 19:56 42.81875 23.49712 9281 ft 289 kts 339°
2026-05-06 19:56 42.83787 23.48836 10089 ft 291 kts 340°
2026-05-06 19:57 42.85767 23.47960 10479 ft 310 kts 341°
2026-05-06 19:57 42.87889 23.47041 10756 ft 328 kts 341°
2026-05-06 19:57 42.90091 23.46101 11375 ft 334 kts 341°
2026-05-06 19:57 42.92322 23.45154 12091 ft 337 kts 341°
2026-05-06 19:58 42.94573 23.44200 12816 ft 340 kts 341°
2026-05-06 19:58 42.96831 23.43239 13560 ft 342 kts 341°
2026-05-06 19:58 42.99117 23.42263 14195 ft 345 kts 341°
2026-05-06 19:58 43.01420 23.41276 14778 ft 349 kts 341°
2026-05-06 19:59 43.03743 23.40279 15372 ft 351 kts 341°
2026-05-06 19:59 43.06091 23.39269 15947 ft 355 kts 341°
2026-05-06 19:59 43.08454 23.38251 16530 ft 358 kts 341°
2026-05-06 19:59 43.10843 23.37221 17112 ft 361 kts 341°
2026-05-06 20:00 43.13248 23.36185 17719 ft 364 kts 341°
2026-05-06 20:00 43.15675 23.35137 18287 ft 367 kts 341°
2026-05-06 20:00 43.18126 23.34079 18803 ft 370 kts 341°
2026-05-06 20:00 43.20591 23.33037 19324 ft 373 kts 344°
2026-05-06 20:01 43.23164 23.32438 19859 ft 377 kts 353°
2026-05-06 20:01 43.25785 23.32130 20373 ft 380 kts 353°
2026-05-06 20:01 43.28427 23.31814 20889 ft 382 kts 353°
2026-05-06 20:01 43.31083 23.31494 21386 ft 384 kts 353°
2026-05-06 20:02 43.33754 23.31169 21855 ft 387 kts 353°
2026-05-06 20:02 43.36444 23.30837 22318 ft 390 kts 353°
2026-05-06 20:02 43.39123 23.30502 22793 ft 392 kts 353°
2026-05-06 20:02 43.41849 23.30162 23266 ft 395 kts 353°
2026-05-06 20:03 43.44596 23.29824 23715 ft 397 kts 353°
2026-05-06 20:03 43.47355 23.29486 24128 ft 399 kts 353°
2026-05-06 20:03 43.50127 23.29143 24522 ft 401 kts 352°
2026-05-06 20:03 43.52913 23.28796 24925 ft 403 kts 352°
2026-05-06 20:04 43.55712 23.28446 25321 ft 405 kts 352°
2026-05-06 20:04 43.58528 23.28092 25692 ft 407 kts 352°
2026-05-06 20:04 43.61389 23.27734 26094 ft 409 kts 352°
2026-05-06 20:04 43.64192 23.27386 26471 ft 411 kts 352°
2026-05-06 20:05 43.67047 23.27034 26852 ft 413 kts 352°
2026-05-06 20:05 43.69955 23.26675 27234 ft 414 kts 352°
2026-05-06 20:05 43.72797 23.26324 27607 ft 416 kts 352°
2026-05-06 20:05 43.75687 23.25964 27977 ft 418 kts 352°
2026-05-06 20:06 43.78589 23.25598 28336 ft 420 kts 352°
2026-05-06 20:06 43.81511 23.25231 28710 ft 423 kts 352°
2026-05-06 20:06 43.84409 23.24594 29079 ft 422 kts 343°
2026-05-06 20:06 43.87224 23.23524 29446 ft 423 kts 342°
2026-05-06 20:07 43.90070 23.22424 29805 ft 425 kts 342°
2026-05-06 20:07 43.92923 23.21326 30158 ft 427 kts 342°
2026-05-06 20:07 43.95784 23.20226 30473 ft 429 kts 342°
2026-05-06 20:07 43.98670 23.19118 30830 ft 429 kts 342°
2026-05-06 20:08 44.01540 23.18018 31261 ft 428 kts 342°
2026-05-06 20:08 44.04409 23.16917 31703 ft 426 kts 342°